| time (UTC) | temp F | wind direction | speed knots | gust knots | rain 1hr in | rain 24hr in | rain mn in | humidity % | barometer mb |
| 20260505124540 | 61 | 200 | 0.0 | 7.8 | 0.00 | 0.00 | 0.00 | 68 | 1011.2 |
| 20260505123038 | 60 | 153 | 0.0 | 1.7 | 0.00 | 0.00 | 0.00 | 70 | 1011.0 |
| 20260505121534 | 59 | 216 | 0.0 | 0.9 | 0.00 | 0.00 | 0.00 | 71 | 1010.8 |
| 20260505120033 | 59 | 197 | 0.0 | 2.6 | 0.00 | 0.00 | 0.00 | 71 | 1010.7 |
| 20260505114528 | 58 | 193 | 0.0 | 0.9 | 0.00 | 0.00 | 0.00 | 71 | 1010.6 |
| 20260505113026 | 58 | 94 | 0.0 | 1.7 | 0.00 | 0.00 | 0.00 | 69 | 1010.6 |
| 20260505111524 | 58 | 126 | 0.0 | 2.6 | 0.00 | 0.00 | 0.00 | 68 | 1010.7 |
| 20260505101530 | 59 | 240 | 0.0 | 3.5 | 0.00 | 0.00 | 0.00 | 67 | 1009.9 |
| 20260505100021 | 59 | 223 | 0.0 | 1.7 | 0.00 | 0.00 | 0.00 | 66 | 1009.7 |
| 20260505094512 | 60 | 200 | 0.0 | 2.6 | 0.00 | 0.00 | 0.00 | 66 | 1009.8 |
| 20260505093022 | 60 | 167 | 0.0 | 0.0 | 0.00 | 0.00 | 0.00 | 65 | 1009.7 |
| 20260505091509 | 60 | 227 | 0.0 | 0.0 | 0.00 | 0.00 | 0.00 | 64 | 1009.9 |
| 20260505090007 | 61 | 235 | 0.0 | 7.0 | 0.00 | 0.00 | 0.00 | 63 | 1010.0 |
| 20260505084506 | 61 | 277 | 0.0 | 2.6 | 0.00 | 0.00 | 0.00 | 62 | 1009.9 |
| 20260505083008 | 62 | 213 | 0.0 | 6.1 | 0.00 | 0.00 | 0.00 | 61 | 1010.0 |
| 20260505081507 | 62 | 209 | 0.0 | 5.2 | 0.00 | 0.00 | 0.00 | 61 | 1009.9 |
| 20260505080118 | 62 | 244 | 0.0 | 7.0 | 0.00 | 0.00 | 0.00 | 61 | 1009.7 |
| 20260505074602 | 62 | 232 | 0.0 | 1.7 | 0.00 | 0.00 | 0.00 | 61 | 1009.6 |
| 20260505073056 | 62 | 219 | 0.0 | 2.6 | 0.00 | 0.00 | 0.00 | 61 | 1009.5 |
| 20260505071558 | 62 | 243 | 0.0 | 3.5 | 0.00 | 0.00 | 0.00 | 60 | 1009.4 |
| 20260505070051 | 62 | 246 | 0.0 | 6.1 | 0.00 | 0.00 | 0.00 | 60 | 1009.4 |
| 20260505064548 | 62 | 236 | 0.0 | 4.3 | 0.00 | 0.00 | 0.00 | 59 | 1009.7 |
| 20260505063104 | 63 | 243 | 0.0 | 0.9 | 0.00 | 0.00 | 0.00 | 58 | 1009.7 |
| 20260505061607 | 64 | 231 | 0.0 | 2.6 | 0.00 | 0.00 | 0.00 | 57 | 1009.8 |
| 20260505060041 | 64 | 211 | 0.0 | 0.0 | 0.00 | 0.00 | 0.00 | 56 | 1010.0 |
| 20260505054539 | 65 | 230 | 0.0 | 4.3 | 0.00 | 0.00 | 0.00 | 56 | 1010.0 |
| 20260505053042 | 65 | 267 | 0.0 | 0.9 | 0.00 | 0.00 | 0.00 | 55 | 1010.0 |
| 20260505051555 | 65 | 217 | 0.0 | 2.6 | 0.00 | 0.00 | 0.00 | 55 | 1009.8 |
| 20260505041532 | 66 | 209 | 1.7 | 7.8 | 0.00 | 0.00 | 0.00 | 55 | 1009.3 |
| 20260505040028 | 66 | 211 | 0.0 | 3.5 | 0.00 | 0.00 | 0.00 | 54 | 1009.1 |
| 20260505034524 | 67 | 243 | 0.9 | 8.7 | 0.00 | 0.00 | 0.00 | 53 | 1009.1 |
| 20260505033025 | 67 | 224 | 0.0 | 9.6 | 0.00 | 0.00 | 0.00 | 52 | 1009.0 |
| 20260505031520 | 68 | 277 | 0.0 | 8.7 | 0.00 | 0.00 | 0.00 | 51 | 1008.9 |
| 20260505030018 | 68 | 284 | 0.9 | 8.7 | 0.00 | 0.00 | 0.00 | 50 | 1008.8 |
| 20260505024616 | 69 | 222 | 2.6 | 8.7 | 0.00 | 0.00 | 0.00 | 50 | 1008.6 |
| 20260505023014 | 69 | 197 | 1.7 | 10.4 | 0.00 | 0.00 | 0.00 | 49 | 1008.6 |
| 20260505021513 | 70 | 188 | 0.0 | 8.7 | 0.00 | 0.00 | 0.00 | 49 | 1008.6 |
| 20260505020012 | 70 | 181 | 1.7 | 10.4 | 0.00 | 0.00 | 0.00 | 50 | 1008.5 |
| 20260505014510 | 70 | 208 | 0.9 | 7.8 | 0.00 | 0.00 | 0.00 | 50 | 1008.7 |
| 20260505013007 | 70 | 202 | 1.7 | 8.7 | 0.00 | 0.00 | 0.00 | 49 | 1008.7 |
| 20260505011504 | 70 | 220 | 2.6 | 7.8 | 0.00 | 0.00 | 0.00 | 49 | 1008.6 |
| 20260505010113 | 71 | 217 | 0.0 | 4.3 | 0.00 | 0.00 | 0.00 | 48 | 1008.8 |
| 20260505004559 | 71 | 235 | 0.0 | 4.3 | 0.00 | 0.00 | 0.00 | 48 | 1008.7 |
| 20260505003058 | 72 | 228 | 0.9 | 7.8 | 0.00 | 0.00 | 0.00 | 47 | 1008.6 |
| 20260505003005 | 72 | 274 | 1.7 | 7.8 | 0.00 | 0.00 | 0.00 | 47 | 1008.6 |
| 20260505000049 | 73 | 182 | 0.0 | 6.1 | 0.00 | 0.00 | 0.00 | 46 | 1008.6 |
| 20260504233101 | 74 | 241 | 0.0 | 6.1 | 0.00 | 0.00 | 0.00 | 45 | 1008.8 |
| 20260504231526 | 74 | 232 | 0.0 | 7.0 | 0.00 | 0.00 | 0.00 | 44 | 1008.8 |
| 20260504230025 | 75 | 240 | 0.9 | 9.6 | 0.00 | 0.00 | 0.00 | 43 | 1008.9 |
| 20260504224537 | 75 | 246 | 0.9 | 4.3 | 0.00 | 0.00 | 0.00 | 45 | 1008.8 |
| 20260504223027 | 76 | 219 | 0.0 | 7.0 | 0.00 | 0.00 | 0.00 | 44 | 1008.8 |
| 20260504221521 | 76 | 158 | 0.0 | 6.1 | 0.00 | 0.00 | 0.00 | 45 | 1008.9 |
| 20260504220021 | 76 | 202 | 0.9 | 11.3 | 0.00 | 0.00 | 0.00 | 43 | 1009.1 |
| 20260504214520 | 77 | 219 | 0.0 | 5.2 | 0.00 | 0.00 | 0.00 | 44 | 1009.0 |
| 20260504213020 | 77 | 266 | 2.6 | 10.4 | 0.00 | 0.00 | 0.00 | 42 | 1008.9 |
| 20260504211518 | 78 | 229 | 2.6 | 11.3 | 0.00 | 0.00 | 0.00 | 41 | 1009.0 |
| 20260504210017 | 77 | 233 | 0.0 | 9.6 | 0.00 | 0.00 | 0.00 | 43 | 1009.0 |
| 20260504204515 | 78 | 80 | 1.7 | 7.8 | 0.00 | 0.00 | 0.00 | 42 | 1009.1 |
| 20260504203021 | 79 | 234 | 0.0 | 6.1 | 0.00 | 0.00 | 0.00 | 43 | 1009.2 |
| 20260504201511 | 79 | 229 | 2.6 | 8.7 | 0.00 | 0.00 | 0.00 | 41 | 1009.5 |
| 20260504200010 | 80 | 169 | 1.7 | 10.4 | 0.00 | 0.00 | 0.00 | 42 | 1010.0 |
| 20260504194507 | 79 | 313 | 0.9 | 6.1 | 0.00 | 0.00 | 0.00 | 46 | 1010.1 |
| 20260504193012 | 79 | 239 | 0.0 | 7.0 | 0.00 | 0.00 | 0.00 | 44 | 1010.2 |
| 20260504191508 | 79 | 240 | 0.0 | 10.4 | 0.00 | 0.00 | 0.00 | 43 | 1010.4 |
| 20260504190000 | 79 | 292 | 1.7 | 7.8 | 0.00 | 0.00 | 0.00 | 44 | 1010.5 |
| 20260504184557 | 78 | 308 | 0.9 | 10.4 | 0.00 | 0.00 | 0.00 | 48 | 1010.6 |
| 20260504183055 | 78 | 247 | 1.7 | 11.3 | 0.00 | 0.00 | 0.00 | 47 | 1010.8 |
| 20260504181554 | 77 | 226 | 0.9 | 8.7 | 0.00 | 0.00 | 0.00 | 51 | 1010.9 |
| 20260504180047 | 76 | 196 | 0.0 | 10.4 | 0.00 | 0.00 | 0.00 | 50 | 1011.1 |
| 20260504174546 | 75 | 192 | 1.7 | 8.7 | 0.00 | 0.00 | 0.00 | 50 | 1011.3 |
| 20260504173043 | 75 | 253 | 1.7 | 9.6 | 0.00 | 0.00 | 0.00 | 49 | 1011.4 |
| 20260504171539 | 74 | 213 | 0.0 | 7.8 | 0.00 | 0.00 | 0.00 | 50 | 1011.7 |